map of TSA home
TSA - Airport
Location
City:  Taipei, Taiwan
Name:Taipei Songshan
Old (Alt.):Sung Shan
ICAO:RCSS
IATA:TSA

Details
Type:Airport (Aerodrome, Airfield)
Use:Public/Civil
Latitude:2504'11"N (25.069722)
Longitude:12133'09"E (121.552500)
Datum:WGS 1984
Elevation:18 ft (5 m)
Variation:4.61W (WMM2015v2 magnetic declination)
-0.08 annual change
Runways:1
Longest:8578 × 197 ft (2615 × 60 m), paved

Time
Time Zone:UTC+8
Local Time:

Weather
METAR:RCSS 041400Z 11008KT 8000 FEW005 BKN020 BKN035 17/16 Q1020 NOSIG RMK A3012
TAF:RCSS 041100Z 0412/0512 10011KT 9999 FEW012 BKN024
TEMPO 0418/0424 09005KT FEW010 BKN015
TEMPO 0500/0506 10016KT FEW016 BKN032
TEMPO 0507/0512 09007KT FEW016 BKN032

Related Locations
Nearby:
Farthest:CLX: 12395 mi / 19948 km
Clorinda [Clorinda Airport], P, AR

Find:

   beyond  
but within

Other Information
Maps:
NOTAMs:
Links:
Sources:

  
  • flag of Taiwan
  • flag of Taipei
  

Sectional Chart

Flight Planning
at skyvector.com

Satellite Image

Google Maps Satellite view

 

Copyright © 2004-2019 Karl L. Swartz. All rights reserved.
The Great Circle Mapper name and logo are trademarks of the Great Circle Mapper.
All other trademarks mentioned herein belong to their respective owners.
Please see credits for attibutions and further copyright information.

  Follow gcmap on Facebook Follow gcmap on Twitter GCmap on LinkedIn

hCard Microformat

Geo Microformat